TimeCST,TemperatureF,Dew PointF,Humidity,Sea Level PressureIn,VisibilityMPH,Wind Direction,Wind SpeedMPH,Gust SpeedMPH,PrecipitationIn,Events,Conditions,WindDirDegrees,DateUTC
12:00 AM,-57,,,30.53,15,Calm,Calm,,,Snow,Snow,,2013-02-28 06:00:00
12:00 AM,-58.0,-9999,N/A,30.53,15.0,Calm,Calm,-,N/A,,Clear,0,2013-02-28 06:00:00
1:00 AM,-56.2,-9999,N/A,30.52,15.0,Calm,Calm,-,N/A,,Clear,0,2013-02-28 07:00:00
2:00 AM,-56.2,-9999,N/A,30.52,15.0,Calm,Calm,-,N/A,,Clear,0,2013-02-28 08:00:00
3:00 AM,-56.2,-9999,N/A,30.52,15.0,Calm,Calm,-,N/A,,Clear,0,2013-02-28 09:00:00
4:00 AM,-58.0,-9999,N/A,30.52,15.0,Calm,Calm,-,N/A,,Clear,0,2013-02-28 10:00:00
5:00 AM,-58.0,-9999,N/A,30.52,15.0,Calm,Calm,-,N/A,,Clear,0,2013-02-28 11:00:00
6:00 AM,-58,,,30.51,15,Calm,Calm,,,Snow,Snow,,2013-02-28 12:00:00
6:00 AM,-58.0,-9999,N/A,30.51,15.0,Calm,Calm,-,N/A,,Clear,0,2013-02-28 12:00:00
7:00 AM,-58.0,-9999,N/A,30.50,15.0,Calm,Calm,-,N/A,,Clear,0,2013-02-28 13:00:00
8:00 AM,-58.0,-9999,N/A,30.50,15.0,Calm,Calm,-,N/A,,Clear,0,2013-02-28 14:00:00
9:00 AM,-58.0,-9999,N/A,30.48,15.0,Calm,Calm,-,N/A,,Clear,0,2013-02-28 15:00:00
10:00 AM,-58.0,-9999,N/A,30.49,15.0,Calm,Calm,-,N/A,,Clear,0,2013-02-28 16:00:00
11:00 AM,-58.0,-9999,N/A,30.49,15.0,Calm,Calm,-,N/A,,Clear,0,2013-02-28 17:00:00
12:00 PM,-57,,,30.49,15,Calm,Calm,,,Snow,Snow,,2013-02-28 18:00:00
12:00 PM,-58.0,-9999,N/A,30.49,15.0,Calm,Calm,-,N/A,,Clear,0,2013-02-28 18:00:00
1:00 PM,-56.2,-9999,N/A,30.48,15.0,Calm,Calm,-,N/A,,Clear,0,2013-02-28 19:00:00
2:00 PM,-58.0,-9999,N/A,30.48,15.0,Calm,Calm,-,N/A,,Clear,0,2013-02-28 20:00:00
3:00 PM,-59.8,-9999,N/A,30.48,15.0,Calm,Calm,-,N/A,,Clear,0,2013-02-28 21:00:00
4:00 PM,-59.8,-9999,N/A,30.49,15.0,Calm,Calm,-,N/A,,Clear,0,2013-02-28 22:00:00
5:00 PM,-59.8,-9999,N/A,30.49,15.0,Calm,Calm,-,N/A,,Clear,0,2013-02-28 23:00:00
6:00 PM,-58,,,30.49,15,Calm,Calm,,,Snow,Snow,,2013-03-01 00:00:00
6:00 PM,-58.0,-9999,N/A,30.49,15.0,Calm,Calm,-,N/A,,Clear,0,2013-03-01 00:00:00
7:00 PM,-59.8,-9999,N/A,30.49,15.0,Calm,Calm,-,N/A,,Clear,0,2013-03-01 01:00:00
8:00 PM,-58.0,-9999,N/A,30.48,15.0,Calm,Calm,-,N/A,,Clear,0,2013-03-01 02:00:00
9:00 PM,-59.8,-9999,N/A,30.48,15.0,Calm,Calm,-,N/A,,Clear,0,2013-03-01 03:00:00